owner,sensor,date,latitude,longitude,vertical_datum,sea_water_practical_salinity,qcFlag 
DISL,ioos:station:DISL:MHPA:1,2013-04-01T00:00:00Z,30.6671,-87.9365,4.353,0.07,1111122 
DISL,ioos:station:DISL:MHPA:1,2013-04-01T00:30:00Z,30.6671,-87.9365,4.24,0.07,1111122 
DISL,ioos:station:DISL:MHPA:1,2013-04-01T01:00:00Z,30.6671,-87.9365,4.263,0.07,1111122 
DISL,ioos:station:DISL:MHPA:1,2013-04-01T01:30:00Z,30.6671,-87.9365,4.175,0.07,1111122 
DISL,ioos:station:DISL:MHPA:1,2013-04-01T02:00:00Z,30.6671,-87.9365,3.989,0.07,1111122 
DISL,ioos:station:DISL:MHPA:1,2013-04-01T02:30:00Z,30.6671,-87.9365,3.893,0.07,1111122 
DISL,ioos:station:DISL:MHPA:1,2013-04-01T03:00:00Z,30.6671,-87.9365,3.814,0.07,1111122 
DISL,ioos:station:DISL:MHPA:1,2013-04-01T03:30:00Z,30.6671,-87.9365,3.715,0.07,1111122 
DISL,ioos:station:DISL:MHPA:1,2013-04-01T04:00:00Z,30.6671,-87.9365,3.682,0.07,1111122 
DISL,ioos:station:DISL:MHPA:1,2013-04-01T04:30:00Z,30.6671,-87.9365,3.644,0.07,1111122 
DISL,ioos:station:DISL:MHPA:1,2013-04-01T05:00:00Z,30.6671,-87.9365,3.58,0.07,1111122 
DISL,ioos:station:DISL:MHPA:1,2013-04-01T05:30:00Z,30.6671,-87.9365,3.51,0.07,1111122 
DISL,ioos:station:DISL:MHPA:1,2013-04-01T06:00:00Z,30.6671,-87.9365,3.434,0.07,1111122 
DISL,ioos:station:DISL:MHPA:1,2013-04-01T06:30:00Z,30.6671,-87.9365,3.364,0.07,1111122 
DISL,ioos:station:DISL:MHPA:1,2013-04-01T07:00:00Z,30.6671,-87.9365,3.31,0.07,1111122 
DISL,ioos:station:DISL:MHPA:1,2013-04-01T07:30:00Z,30.6671,-87.9365,3.272,0.07,1111122 
DISL,ioos:station:DISL:MHPA:1,2013-04-01T08:00:00Z,30.6671,-87.9365,3.256,0.07,1111122 
DISL,ioos:station:DISL:MHPA:1,2013-04-01T08:30:00Z,30.6671,-87.9365,3.248,0.07,1111122 
DISL,ioos:station:DISL:MHPA:1,2013-04-01T09:00:00Z,30.6671,-87.9365,3.294,0.07,1111122 
DISL,ioos:station:DISL:MHPA:1,2013-04-01T09:30:00Z,30.6671,-87.9365,3.392,0.07,1111122 
DISL,ioos:station:DISL:MHPA:1,2013-04-01T10:00:00Z,30.6671,-87.9365,3.426,0.07,1111122 
DISL,ioos:station:DISL:MHPA:1,2013-04-01T10:30:00Z,30.6671,-87.9365,3.508,0.07,1111122 
DISL,ioos:station:DISL:MHPA:1,2013-04-01T11:00:00Z,30.6671,-87.9365,3.568,0.07,1111122 
DISL,ioos:station:DISL:MHPA:1,2013-04-01T11:30:00Z,30.6671,-87.9365,3.62,0.07,1111122 
DISL,ioos:station:DISL:MHPA:1,2013-04-01T12:00:00Z,30.6671,-87.9365,3.647,0.07,1111122 
DISL,ioos:station:DISL:MHPA:1,2013-04-01T12:30:00Z,30.6671,-87.9365,3.629,0.07,1111122 
DISL,ioos:station:DISL:MHPA:1,2013-04-01T13:00:00Z,30.6671,-87.9365,3.671,0.07,1111122 
DISL,ioos:station:DISL:MHPA:1,2013-04-01T13:30:00Z,30.6671,-87.9365,3.744,0.07,1111122 
DISL,ioos:station:DISL:MHPA:1,2013-04-01T14:00:00Z,30.6671,-87.9365,3.77,0.07,1111122 
DISL,ioos:station:DISL:MHPA:1,2013-04-01T14:30:00Z,30.6671,-87.9365,3.822,0.07,1111122 
DISL,ioos:station:DISL:MHPA:1,2013-04-01T15:00:00Z,30.6671,-87.9365,3.951,0.07,1111122 
DISL,ioos:station:DISL:MHPA:1,2013-04-01T15:30:00Z,30.6671,-87.9365,4.043,0.07,1111122 
DISL,ioos:station:DISL:MHPA:1,2013-04-01T16:00:00Z,30.6671,-87.9365,4.094,0.07,1111122 
DISL,ioos:station:DISL:MHPA:1,2013-04-01T16:30:00Z,30.6671,-87.9365,4.224,0.07,1111122 
DISL,ioos:station:DISL:MHPA:1,2013-04-01T17:00:00Z,30.6671,-87.9365,4.416,0.07,1111122 
DISL,ioos:station:DISL:MHPA:1,2013-04-01T17:30:00Z,30.6671,-87.9365,4.433,0.07,1111122 
DISL,ioos:station:DISL:MHPA:1,2013-04-01T18:00:00Z,30.6671,-87.9365,4.439,0.07,1111122 
DISL,ioos:station:DISL:MHPA:1,2013-04-01T18:30:00Z,30.6671,-87.9365,4.474,0.07,1111122 
DISL,ioos:station:DISL:MHPA:1,2013-04-01T19:00:00Z,30.6671,-87.9365,4.434,0.07,1111122 
DISL,ioos:station:DISL:MHPA:1,2013-04-01T19:30:00Z,30.6671,-87.9365,4.454,0.07,1111122 
DISL,ioos:station:DISL:MHPA:1,2013-04-01T20:00:00Z,30.6671,-87.9365,4.42,0.06,1111122 
DISL,ioos:station:DISL:MHPA:1,2013-04-01T20:30:00Z,30.6671,-87.9365,4.456,0.07,1111122 
DISL,ioos:station:DISL:MHPA:1,2013-04-01T21:00:00Z,30.6671,-87.9365,4.458,0.07,1111122 
DISL,ioos:station:DISL:MHPA:1,2013-04-01T21:30:00Z,30.6671,-87.9365,4.408,0.07,1111122 
DISL,ioos:station:DISL:MHPA:1,2013-04-01T22:00:00Z,30.6671,-87.9365,4.369,0.07,1111122 
DISL,ioos:station:DISL:MHPA:1,2013-04-01T22:30:00Z,30.6671,-87.9365,4.334,0.07,1111122 
DISL,ioos:station:DISL:MHPA:1,2013-04-01T23:00:00Z,30.6671,-87.9365,4.293,0.07,1111122 
DISL,ioos:station:DISL:MHPA:1,2013-04-01T23:30:00Z,30.6671,-87.9365,4.197,0.07,1111122 
DISL,ioos:station:DISL:MHPA:1,2013-04-02T00:00:00Z,30.6671,-87.9365,4.109,0.07,1111122 
DISL,ioos:station:DISL:MHPA:1,2013-04-02T00:30:00Z,30.6671,-87.9365,4.06,0.07,1111122 
DISL,ioos:station:DISL:MHPA:1,2013-04-02T01:00:00Z,30.6671,-87.9365,3.981,0.07,1111122 
DISL,ioos:station:DISL:MHPA:1,2013-04-02T01:30:00Z,30.6671,-87.9365,3.897,0.07,1111122 
DISL,ioos:station:DISL:MHPA:1,2013-04-02T02:00:00Z,30.6671,-87.9365,3.832,0.07,1111122 
DISL,ioos:station:DISL:MHPA:1,2013-04-02T02:30:00Z,30.6671,-87.9365,3.775,0.07,1111122 
DISL,ioos:station:DISL:MHPA:1,2013-04-02T03:00:00Z,30.6671,-87.9365,3.713,0.07,1111122 
DISL,ioos:station:DISL:MHPA:1,2013-04-02T03:30:00Z,30.6671,-87.9365,3.645,0.07,1111122 
DISL,ioos:station:DISL:MHPA:1,2013-04-02T04:00:00Z,30.6671,-87.9365,3.575,0.07,1111122 
DISL,ioos:station:DISL:MHPA:1,2013-04-02T04:30:00Z,30.6671,-87.9365,3.505,0.07,1111122 
DISL,ioos:station:DISL:MHPA:1,2013-04-02T05:00:00Z,30.6671,-87.9365,3.426,0.07,1111122 
DISL,ioos:station:DISL:MHPA:1,2013-04-02T05:30:00Z,30.6671,-87.9365,3.351,0.07,1111122 
DISL,ioos:station:DISL:MHPA:1,2013-04-02T06:00:00Z,30.6671,-87.9365,3.292,0.07,1111122 
DISL,ioos:station:DISL:MHPA:1,2013-04-02T06:30:00Z,30.6671,-87.9365,3.238,0.07,1111122 
DISL,ioos:station:DISL:MHPA:1,2013-04-02T07:00:00Z,30.6671,-87.9365,3.186,0.07,1111122 
DISL,ioos:station:DISL:MHPA:1,2013-04-02T07:30:00Z,30.6671,-87.9365,3.141,0.07,1111122 
DISL,ioos:station:DISL:MHPA:1,2013-04-02T08:00:00Z,30.6671,-87.9365,3.105,0.07,1111122 
DISL,ioos:station:DISL:MHPA:1,2013-04-02T08:30:00Z,30.6671,-87.9365,3.077,0.07,1111122 
DISL,ioos:station:DISL:MHPA:1,2013-04-02T09:00:00Z,30.6671,-87.9365,3.053,0.07,1111122 
DISL,ioos:station:DISL:MHPA:1,2013-04-02T09:30:00Z,30.6671,-87.9365,3.035,0.07,1111122 
DISL,ioos:station:DISL:MHPA:1,2013-04-02T10:00:00Z,30.6671,-87.9365,3.02,0.07,1111122 
DISL,ioos:station:DISL:MHPA:1,2013-04-02T10:30:00Z,30.6671,-87.9365,3.006,0.07,1111122 
DISL,ioos:station:DISL:MHPA:1,2013-04-02T11:00:00Z,30.6671,-87.9365,2.998,0.07,1111122 
DISL,ioos:station:DISL:MHPA:1,2013-04-02T11:30:00Z,30.6671,-87.9365,3.003,0.07,1111122 
DISL,ioos:station:DISL:MHPA:1,2013-04-02T12:00:00Z,30.6671,-87.9365,3.024,0.07,1111122 
DISL,ioos:station:DISL:MHPA:1,2013-04-02T12:30:00Z,30.6671,-87.9365,3.062,0.07,1111122 
DISL,ioos:station:DISL:MHPA:1,2013-04-02T13:00:00Z,30.6671,-87.9365,3.123,0.07,1111122 
DISL,ioos:station:DISL:MHPA:1,2013-04-02T13:30:00Z,30.6671,-87.9365,3.212,0.07,1111122 
DISL,ioos:station:DISL:MHPA:1,2013-04-02T14:00:00Z,30.6671,-87.9365,3.307,0.07,1111122 
DISL,ioos:station:DISL:MHPA:1,2013-04-02T14:30:00Z,30.6671,-87.9365,3.409,0.07,1111122 
DISL,ioos:station:DISL:MHPA:1,2013-04-02T15:00:00Z,30.6671,-87.9365,3.589,0.07,1111122 
DISL,ioos:station:DISL:MHPA:1,2013-04-02T15:30:00Z,30.6671,-87.9365,3.734,0.07,1111122 
DISL,ioos:station:DISL:MHPA:1,2013-04-02T16:00:00Z,30.6671,-87.9365,3.879,0.07,1111122 
DISL,ioos:station:DISL:MHPA:1,2013-04-02T16:30:00Z,30.6671,-87.9365,4.001,0.07,1111122 
DISL,ioos:station:DISL:MHPA:1,2013-04-02T17:00:00Z,30.6671,-87.9365,4.101,0.07,1111122 
DISL,ioos:station:DISL:MHPA:1,2013-04-02T17:30:00Z,30.6671,-87.9365,4.19,0.07,1111122 
DISL,ioos:station:DISL:MHPA:1,2013-04-02T18:00:00Z,30.6671,-87.9365,4.31,0.07,1111122 
DISL,ioos:station:DISL:MHPA:1,2013-04-02T18:30:00Z,30.6671,-87.9365,4.412,0.07,1111122 
DISL,ioos:station:DISL:MHPA:1,2013-04-02T19:00:00Z,30.6671,-87.9365,4.54,0.07,1111122 
DISL,ioos:station:DISL:MHPA:1,2013-04-02T19:30:00Z,30.6671,-87.9365,4.661,0.07,1111122 
DISL,ioos:station:DISL:MHPA:1,2013-04-02T20:00:00Z,30.6671,-87.9365,4.74,0.07,1111122 
DISL,ioos:station:DISL:MHPA:1,2013-04-02T20:30:00Z,30.6671,-87.9365,4.805,0.07,1111122 
DISL,ioos:station:DISL:MHPA:1,2013-04-02T21:00:00Z,30.6671,-87.9365,4.808,0.07,1111122 
DISL,ioos:station:DISL:MHPA:1,2013-04-02T21:30:00Z,30.6671,-87.9365,4.937,0.07,1111122 
DISL,ioos:station:DISL:MHPA:1,2013-04-02T22:00:00Z,30.6671,-87.9365,4.954,0.06,1111122 
DISL,ioos:station:DISL:MHPA:1,2013-04-02T22:30:00Z,30.6671,-87.9365,4.819,0.06,1111122 
DISL,ioos:station:DISL:MHPA:1,2013-04-02T23:00:00Z,30.6671,-87.9365,4.756,0.07,1111122 
DISL,ioos:station:DISL:MHPA:1,2013-04-02T23:30:00Z,30.6671,-87.9365,4.644,0.07,1111122 
DISL,ioos:station:DISL:MHPA:1,2013-04-03T00:00:00Z,30.6671,-87.9365,4.569,0.07,1111122 
DISL,ioos:station:DISL:MHPA:1,2013-04-03T00:30:00Z,30.6671,-87.9365,4.479,0.07,1111122 
DISL,ioos:station:DISL:MHPA:1,2013-04-03T01:00:00Z,30.6671,-87.9365,4.392,0.07,1111122 
DISL,ioos:station:DISL:MHPA:1,2013-04-03T01:30:00Z,30.6671,-87.9365,4.281,0.07,1111122 
DISL,ioos:station:DISL:MHPA:1,2013-04-03T02:00:00Z,30.6671,-87.9365,4.17,0.07,1111122 
DISL,ioos:station:DISL:MHPA:1,2013-04-03T02:30:00Z,30.6671,-87.9365,4.073,0.07,1111122 
DISL,ioos:station:DISL:MHPA:1,2013-04-03T03:00:00Z,30.6671,-87.9365,3.971,0.07,1111122 
DISL,ioos:station:DISL:MHPA:1,2013-04-03T03:30:00Z,30.6671,-87.9365,3.847,0.07,1111122 
DISL,ioos:station:DISL:MHPA:1,2013-04-03T04:00:00Z,30.6671,-87.9365,3.755,0.07,1111122 
DISL,ioos:station:DISL:MHPA:1,2013-04-03T04:30:00Z,30.6671,-87.9365,3.679,0.07,1111122 
DISL,ioos:station:DISL:MHPA:1,2013-04-03T05:00:00Z,30.6671,-87.9365,3.612,0.07,1111122 
DISL,ioos:station:DISL:MHPA:1,2013-04-03T05:30:00Z,30.6671,-87.9365,3.533,0.07,1111122 
DISL,ioos:station:DISL:MHPA:1,2013-04-03T06:00:00Z,30.6671,-87.9365,3.457,0.07,1111122 
DISL,ioos:station:DISL:MHPA:1,2013-04-03T06:30:00Z,30.6671,-87.9365,3.398,0.07,1111122 
DISL,ioos:station:DISL:MHPA:1,2013-04-03T07:00:00Z,30.6671,-87.9365,3.344,0.07,1111122 
DISL,ioos:station:DISL:MHPA:1,2013-04-03T07:30:00Z,30.6671,-87.9365,3.281,0.07,1111122 
DISL,ioos:station:DISL:MHPA:1,2013-04-03T08:00:00Z,30.6671,-87.9365,3.218,0.07,1111122 
DISL,ioos:station:DISL:MHPA:1,2013-04-03T08:30:00Z,30.6671,-87.9365,3.162,0.07,1111122 
DISL,ioos:station:DISL:MHPA:1,2013-04-03T09:00:00Z,30.6671,-87.9365,3.127,0.07,1111122 
DISL,ioos:station:DISL:MHPA:1,2013-04-03T09:30:00Z,30.6671,-87.9365,3.111,0.07,1111122 
DISL,ioos:station:DISL:MHPA:1,2013-04-03T10:00:00Z,30.6671,-87.9365,3.085,0.07,1111122 
DISL,ioos:station:DISL:MHPA:1,2013-04-03T10:30:00Z,30.6671,-87.9365,3.058,0.07,1111122 
DISL,ioos:station:DISL:MHPA:1,2013-04-03T11:00:00Z,30.6671,-87.9365,3.056,0.07,1111122 
DISL,ioos:station:DISL:MHPA:1,2013-04-03T11:30:00Z,30.6671,-87.9365,3.094,0.07,1111122 
DISL,ioos:station:DISL:MHPA:1,2013-04-03T12:00:00Z,30.6671,-87.9365,3.123,0.07,1111122 
DISL,ioos:station:DISL:MHPA:1,2013-04-03T12:30:00Z,30.6671,-87.9365,3.152,0.07,1111122 
DISL,ioos:station:DISL:MHPA:1,2013-04-03T13:00:00Z,30.6671,-87.9365,3.207,0.07,1111122 
DISL,ioos:station:DISL:MHPA:1,2013-04-03T13:30:00Z,30.6671,-87.9365,3.256,0.07,1111122 
DISL,ioos:station:DISL:MHPA:1,2013-04-03T14:00:00Z,30.6671,-87.9365,3.274,0.07,1111122 
DISL,ioos:station:DISL:MHPA:1,2013-04-03T14:30:00Z,30.6671,-87.9365,3.309,0.07,1111122 
DISL,ioos:station:DISL:MHPA:1,2013-04-03T15:00:00Z,30.6671,-87.9365,3.356,0.07,1111122 
DISL,ioos:station:DISL:MHPA:1,2013-04-03T15:30:00Z,30.6671,-87.9365,3.444,0.07,1111122 
DISL,ioos:station:DISL:MHPA:1,2013-04-03T16:00:00Z,30.6671,-87.9365,3.524,0.07,1111122 
DISL,ioos:station:DISL:MHPA:1,2013-04-03T16:30:00Z,30.6671,-87.9365,3.605,0.07,1111122 
DISL,ioos:station:DISL:MHPA:1,2013-04-03T17:00:00Z,30.6671,-87.9365,3.605,0.07,1111122 
DISL,ioos:station:DISL:MHPA:1,2013-04-03T17:30:00Z,30.6671,-87.9365,3.575,0.07,1111122 
DISL,ioos:station:DISL:MHPA:1,2013-04-03T18:00:00Z,30.6671,-87.9365,3.636,0.07,1111122 
DISL,ioos:station:DISL:MHPA:1,2013-04-03T18:30:00Z,30.6671,-87.9365,3.652,0.06,1111122 
DISL,ioos:station:DISL:MHPA:1,2013-04-03T19:00:00Z,30.6671,-87.9365,3.477,0.07,1111122 
DISL,ioos:station:DISL:MHPA:1,2013-04-03T19:30:00Z,30.6671,-87.9365,3.436,0.07,1111122 
DISL,ioos:station:DISL:MHPA:1,2013-04-03T20:00:00Z,30.6671,-87.9365,4.354,0.06,1111122 
DISL,ioos:station:DISL:MHPA:1,2013-04-03T20:30:00Z,30.6671,-87.9365,4.419,0.07,1111122 
DISL,ioos:station:DISL:MHPA:1,2013-04-03T21:00:00Z,30.6671,-87.9365,4.563,0.07,1111122 
DISL,ioos:station:DISL:MHPA:1,2013-04-03T21:30:00Z,30.6671,-87.9365,4.578,0.07,1111122 
DISL,ioos:station:DISL:MHPA:1,2013-04-03T22:00:00Z,30.6671,-87.9365,4.228,0.07,1111122 
DISL,ioos:station:DISL:MHPA:1,2013-04-03T22:30:00Z,30.6671,-87.9365,4.12,0.06,1111122 
DISL,ioos:station:DISL:MHPA:1,2013-04-03T23:00:00Z,30.6671,-87.9365,4.005,0.07,1111122 
DISL,ioos:station:DISL:MHPA:1,2013-04-03T23:30:00Z,30.6671,-87.9365,4.506,0.07,1111122 
DISL,ioos:station:DISL:MHPA:1,2013-04-04T00:00:00Z,30.6671,-87.9365,4.975,0.07,1111122 
DISL,ioos:station:DISL:MHPA:1,2013-04-04T00:30:00Z,30.6671,-87.9365,5.017,0.07,1111122 
DISL,ioos:station:DISL:MHPA:1,2013-04-04T01:00:00Z,30.6671,-87.9365,5.369,0.07,1111122 
DISL,ioos:station:DISL:MHPA:1,2013-04-04T01:30:00Z,30.6671,-87.9365,5.166,0.07,1111122 
DISL,ioos:station:DISL:MHPA:1,2013-04-04T02:00:00Z,30.6671,-87.9365,4.799,0.07,1111122 
DISL,ioos:station:DISL:MHPA:1,2013-04-04T02:30:00Z,30.6671,-87.9365,4.498,0.07,1111122 
DISL,ioos:station:DISL:MHPA:1,2013-04-04T03:00:00Z,30.6671,-87.9365,4.347,0.07,1111122 
DISL,ioos:station:DISL:MHPA:1,2013-04-04T03:30:00Z,30.6671,-87.9365,4.24,0.07,1111122 
DISL,ioos:station:DISL:MHPA:1,2013-04-04T04:00:00Z,30.6671,-87.9365,4.096,0.07,1111122 
DISL,ioos:station:DISL:MHPA:1,2013-04-04T04:30:00Z,30.6671,-87.9365,3.983,0.07,1111122 
DISL,ioos:station:DISL:MHPA:1,2013-04-04T05:00:00Z,30.6671,-87.9365,3.94,0.07,1111122 
DISL,ioos:station:DISL:MHPA:1,2013-04-04T05:30:00Z,30.6671,-87.9365,3.931,0.07,1111122 
DISL,ioos:station:DISL:MHPA:1,2013-04-04T06:00:00Z,30.6671,-87.9365,3.889,0.07,1111122 
DISL,ioos:station:DISL:MHPA:1,2013-04-04T06:30:00Z,30.6671,-87.9365,3.779,0.07,1111122 
DISL,ioos:station:DISL:MHPA:1,2013-04-04T07:00:00Z,30.6671,-87.9365,3.635,0.07,1111122 
DISL,ioos:station:DISL:MHPA:1,2013-04-04T07:30:00Z,30.6671,-87.9365,3.514,0.07,1111122 
DISL,ioos:station:DISL:MHPA:1,2013-04-04T08:00:00Z,30.6671,-87.9365,3.461,0.07,1111122 
DISL,ioos:station:DISL:MHPA:1,2013-04-04T08:30:00Z,30.6671,-87.9365,3.418,0.07,1111122 
DISL,ioos:station:DISL:MHPA:1,2013-04-04T09:00:00Z,30.6671,-87.9365,3.426,0.07,1111122 
DISL,ioos:station:DISL:MHPA:1,2013-04-04T09:30:00Z,30.6671,-87.9365,3.415,0.07,1111122 
DISL,ioos:station:DISL:MHPA:1,2013-04-04T10:00:00Z,30.6671,-87.9365,3.397,0.07,1111122 
DISL,ioos:station:DISL:MHPA:1,2013-04-04T10:30:00Z,30.6671,-87.9365,3.491,0.07,1111122 
DISL,ioos:station:DISL:MHPA:1,2013-04-04T11:00:00Z,30.6671,-87.9365,3.561,0.07,1111122 
DISL,ioos:station:DISL:MHPA:1,2013-04-04T11:30:00Z,30.6671,-87.9365,3.509,0.07,1111122 
DISL,ioos:station:DISL:MHPA:1,2013-04-04T12:00:00Z,30.6671,-87.9365,3.418,0.07,1111122 
DISL,ioos:station:DISL:MHPA:1,2013-04-04T12:30:00Z,30.6671,-87.9365,3.372,0.07,1111122 
DISL,ioos:station:DISL:MHPA:1,2013-04-04T13:00:00Z,30.6671,-87.9365,3.396,0.07,1111122 
DISL,ioos:station:DISL:MHPA:1,2013-04-04T13:30:00Z,30.6671,-87.9365,3.5,0.07,1111122 
DISL,ioos:station:DISL:MHPA:1,2013-04-04T14:00:00Z,30.6671,-87.9365,3.591,0.07,1111122 
DISL,ioos:station:DISL:MHPA:1,2013-04-04T14:30:00Z,30.6671,-87.9365,3.642,0.07,1111122 
DISL,ioos:station:DISL:MHPA:1,2013-04-04T15:00:00Z,30.6671,-87.9365,3.772,0.07,1111122 
DISL,ioos:station:DISL:MHPA:1,2013-04-04T15:30:00Z,30.6671,-87.9365,3.834,0.07,1111122 
DISL,ioos:station:DISL:MHPA:1,2013-04-04T16:00:00Z,30.6671,-87.9365,3.974,0.07,1111122 
DISL,ioos:station:DISL:MHPA:1,2013-04-04T16:30:00Z,30.6671,-87.9365,4.12,0.07,1111122 
DISL,ioos:station:DISL:MHPA:1,2013-04-04T17:00:00Z,30.6671,-87.9365,4.122,0.07,1111122 
DISL,ioos:station:DISL:MHPA:1,2013-04-04T17:30:00Z,30.6671,-87.9365,4.154,0.07,1111122 
DISL,ioos:station:DISL:MHPA:1,2013-04-04T18:00:00Z,30.6671,-87.9365,4.236,0.07,1111122 
DISL,ioos:station:DISL:MHPA:1,2013-04-04T18:30:00Z,30.6671,-87.9365,4.299,0.07,1111122 
DISL,ioos:station:DISL:MHPA:1,2013-04-04T19:00:00Z,30.6671,-87.9365,4.408,0.07,1111122 
DISL,ioos:station:DISL:MHPA:1,2013-04-04T19:30:00Z,30.6671,-87.9365,4.531,0.07,1111122 
DISL,ioos:station:DISL:MHPA:1,2013-04-04T20:00:00Z,30.6671,-87.9365,4.568,0.06,1111122 
DISL,ioos:station:DISL:MHPA:1,2013-04-04T20:30:00Z,30.6671,-87.9365,4.608,0.07,1111122 
DISL,ioos:station:DISL:MHPA:1,2013-04-04T21:00:00Z,30.6671,-87.9365,4.709,0.07,1111122 
DISL,ioos:station:DISL:MHPA:1,2013-04-04T21:30:00Z,30.6671,-87.9365,4.785,0.07,1111122 
DISL,ioos:station:DISL:MHPA:1,2013-04-04T22:00:00Z,30.6671,-87.9365,4.901,0.07,1111122 
DISL,ioos:station:DISL:MHPA:1,2013-04-04T22:30:00Z,30.6671,-87.9365,4.857,0.07,1111122 
DISL,ioos:station:DISL:MHPA:1,2013-04-04T23:00:00Z,30.6671,-87.9365,4.791,0.07,1111122 
DISL,ioos:station:DISL:MHPA:1,2013-04-04T23:30:00Z,30.6671,-87.9365,4.717,0.07,1111122 
DISL,ioos:station:DISL:MHPA:1,2013-04-05T00:00:00Z,30.6671,-87.9365,4.767,0.07,1111122 
DISL,ioos:station:DISL:MHPA:1,2013-04-05T00:30:00Z,30.6671,-87.9365,4.725,0.07,1111122 
DISL,ioos:station:DISL:MHPA:1,2013-04-05T01:00:00Z,30.6671,-87.9365,4.642,0.07,1111122 
DISL,ioos:station:DISL:MHPA:1,2013-04-05T01:30:00Z,30.6671,-87.9365,4.564,0.07,1111122 
DISL,ioos:station:DISL:MHPA:1,2013-04-05T02:00:00Z,30.6671,-87.9365,4.43,0.07,1111122 
DISL,ioos:station:DISL:MHPA:1,2013-04-05T02:30:00Z,30.6671,-87.9365,4.313,0.07,1111122 
DISL,ioos:station:DISL:MHPA:1,2013-04-05T03:00:00Z,30.6671,-87.9365,4.214,0.07,1111122 
DISL,ioos:station:DISL:MHPA:1,2013-04-05T03:30:00Z,30.6671,-87.9365,4.091,0.07,1111122 
DISL,ioos:station:DISL:MHPA:1,2013-04-05T04:00:00Z,30.6671,-87.9365,3.989,0.07,1111122 
DISL,ioos:station:DISL:MHPA:1,2013-04-05T04:30:00Z,30.6671,-87.9365,3.955,0.07,1111122 
DISL,ioos:station:DISL:MHPA:1,2013-04-05T05:00:00Z,30.6671,-87.9365,3.912,0.07,1111122 
DISL,ioos:station:DISL:MHPA:1,2013-04-05T05:30:00Z,30.6671,-87.9365,3.831,0.07,1111122 
DISL,ioos:station:DISL:MHPA:1,2013-04-05T06:00:00Z,30.6671,-87.9365,3.761,0.07,1111122 
DISL,ioos:station:DISL:MHPA:1,2013-04-05T06:30:00Z,30.6671,-87.9365,3.655,0.07,1111122 
DISL,ioos:station:DISL:MHPA:1,2013-04-05T07:00:00Z,30.6671,-87.9365,3.522,0.07,1111122 
DISL,ioos:station:DISL:MHPA:1,2013-04-05T07:30:00Z,30.6671,-87.9365,3.405,0.07,1111122 
DISL,ioos:station:DISL:MHPA:1,2013-04-05T08:00:00Z,30.6671,-87.9365,3.307,0.07,1111122 
DISL,ioos:station:DISL:MHPA:1,2013-04-05T08:30:00Z,30.6671,-87.9365,3.231,0.07,1111122 
DISL,ioos:station:DISL:MHPA:1,2013-04-05T09:00:00Z,30.6671,-87.9365,3.184,0.07,1111122 
DISL,ioos:station:DISL:MHPA:1,2013-04-05T09:30:00Z,30.6671,-87.9365,3.143,0.07,1111122 
DISL,ioos:station:DISL:MHPA:1,2013-04-05T10:00:00Z,30.6671,-87.9365,3.103,0.07,1111122 
DISL,ioos:station:DISL:MHPA:1,2013-04-05T10:30:00Z,30.6671,-87.9365,3.053,0.07,1111122 
DISL,ioos:station:DISL:MHPA:1,2013-04-05T11:00:00Z,30.6671,-87.9365,2.997,0.07,1111122 
DISL,ioos:station:DISL:MHPA:1,2013-04-05T11:30:00Z,30.6671,-87.9365,2.954,0.07,1111122 
DISL,ioos:station:DISL:MHPA:1,2013-04-05T12:00:00Z,30.6671,-87.9365,2.897,0.07,1111122 
DISL,ioos:station:DISL:MHPA:1,2013-04-05T12:30:00Z,30.6671,-87.9365,2.838,0.07,1111122 
DISL,ioos:station:DISL:MHPA:1,2013-04-05T13:00:00Z,30.6671,-87.9365,2.792,0.07,1111122 
DISL,ioos:station:DISL:MHPA:1,2013-04-05T13:30:00Z,30.6671,-87.9365,2.765,0.07,1111122 
DISL,ioos:station:DISL:MHPA:1,2013-04-05T14:00:00Z,30.6671,-87.9365,2.763,0.07,1111122 
DISL,ioos:station:DISL:MHPA:1,2013-04-05T14:30:00Z,30.6671,-87.9365,2.777,0.07,1111122 
DISL,ioos:station:DISL:MHPA:1,2013-04-05T15:00:00Z,30.6671,-87.9365,2.778,0.07,1111122 
DISL,ioos:station:DISL:MHPA:1,2013-04-05T15:30:00Z,30.6671,-87.9365,2.764,0.07,1111122 
DISL,ioos:station:DISL:MHPA:1,2013-04-05T16:00:00Z,30.6671,-87.9365,2.758,0.07,1111122 
DISL,ioos:station:DISL:MHPA:1,2013-04-05T16:30:00Z,30.6671,-87.9365,2.751,0.07,1111122 
DISL,ioos:station:DISL:MHPA:1,2013-04-05T17:00:00Z,30.6671,-87.9365,2.753,0.07,1111122 
DISL,ioos:station:DISL:MHPA:1,2013-04-05T17:30:00Z,30.6671,-87.9365,2.78,0.07,1111122 
DISL,ioos:station:DISL:MHPA:1,2013-04-05T18:00:00Z,30.6671,-87.9365,2.846,0.07,1111122 
DISL,ioos:station:DISL:MHPA:1,2013-04-05T18:30:00Z,30.6671,-87.9365,2.898,0.07,1111122 
DISL,ioos:station:DISL:MHPA:1,2013-04-05T19:00:00Z,30.6671,-87.9365,2.953,0.07,1111122 
DISL,ioos:station:DISL:MHPA:1,2013-04-05T19:30:00Z,30.6671,-87.9365,3.004,0.07,1111122 
DISL,ioos:station:DISL:MHPA:1,2013-04-05T20:00:00Z,30.6671,-87.9365,3.06,0.07,1111122 
DISL,ioos:station:DISL:MHPA:1,2013-04-05T20:30:00Z,30.6671,-87.9365,3.085,0.07,1111122 
DISL,ioos:station:DISL:MHPA:1,2013-04-05T21:00:00Z,30.6671,-87.9365,3.084,0.07,1111122 
DISL,ioos:station:DISL:MHPA:1,2013-04-05T21:30:00Z,30.6671,-87.9365,3.085,0.07,1111122 
DISL,ioos:station:DISL:MHPA:1,2013-04-05T22:00:00Z,30.6671,-87.9365,3.109,0.07,1111122 
DISL,ioos:station:DISL:MHPA:1,2013-04-05T22:30:00Z,30.6671,-87.9365,3.167,0.07,1111122 
DISL,ioos:station:DISL:MHPA:1,2013-04-05T23:00:00Z,30.6671,-87.9365,3.225,0.07,1111122 
DISL,ioos:station:DISL:MHPA:1,2013-04-05T23:30:00Z,30.6671,-87.9365,3.297,0.07,1111122 
DISL,ioos:station:DISL:MHPA:1,2013-04-06T00:00:00Z,30.6671,-87.9365,3.4,0.07,1111122 
DISL,ioos:station:DISL:MHPA:1,2013-04-06T00:30:00Z,30.6671,-87.9365,3.504,0.07,1111122 
DISL,ioos:station:DISL:MHPA:1,2013-04-06T01:00:00Z,30.6671,-87.9365,3.61,0.07,1111122 
DISL,ioos:station:DISL:MHPA:1,2013-04-06T01:30:00Z,30.6671,-87.9365,3.663,0.07,1111122 
DISL,ioos:station:DISL:MHPA:1,2013-04-06T02:00:00Z,30.6671,-87.9365,3.71,0.07,1111122 
DISL,ioos:station:DISL:MHPA:1,2013-04-06T02:30:00Z,30.6671,-87.9365,3.764,0.07,1111122 
DISL,ioos:station:DISL:MHPA:1,2013-04-06T03:00:00Z,30.6671,-87.9365,3.8,0.07,1111122 
DISL,ioos:station:DISL:MHPA:1,2013-04-06T03:30:00Z,30.6671,-87.9365,3.829,0.07,1111122 
DISL,ioos:station:DISL:MHPA:1,2013-04-06T04:00:00Z,30.6671,-87.9365,3.82,0.07,1111122 
DISL,ioos:station:DISL:MHPA:1,2013-04-06T04:30:00Z,30.6671,-87.9365,3.802,0.07,1111122 
DISL,ioos:station:DISL:MHPA:1,2013-04-06T05:00:00Z,30.6671,-87.9365,3.784,0.07,1111122 
DISL,ioos:station:DISL:MHPA:1,2013-04-06T05:30:00Z,30.6671,-87.9365,3.731,0.07,1111122 
DISL,ioos:station:DISL:MHPA:1,2013-04-06T06:00:00Z,30.6671,-87.9365,3.67,0.07,1111122 
DISL,ioos:station:DISL:MHPA:1,2013-04-06T06:30:00Z,30.6671,-87.9365,3.62,0.07,1111122 
DISL,ioos:station:DISL:MHPA:1,2013-04-06T07:00:00Z,30.6671,-87.9365,3.546,0.07,1111122 
DISL,ioos:station:DISL:MHPA:1,2013-04-06T07:30:00Z,30.6671,-87.9365,3.452,0.07,1111122 
DISL,ioos:station:DISL:MHPA:1,2013-04-06T08:00:00Z,30.6671,-87.9365,3.363,0.07,1111122 
DISL,ioos:station:DISL:MHPA:1,2013-04-06T08:30:00Z,30.6671,-87.9365,3.287,0.07,1111122 
DISL,ioos:station:DISL:MHPA:1,2013-04-06T09:00:00Z,30.6671,-87.9365,3.222,0.07,1111122 
DISL,ioos:station:DISL:MHPA:1,2013-04-06T09:30:00Z,30.6671,-87.9365,3.163,0.07,1111122 
DISL,ioos:station:DISL:MHPA:1,2013-04-06T10:00:00Z,30.6671,-87.9365,3.104,0.07,1111122 
DISL,ioos:station:DISL:MHPA:1,2013-04-06T10:30:00Z,30.6671,-87.9365,3.048,0.07,1111122 
DISL,ioos:station:DISL:MHPA:1,2013-04-06T11:00:00Z,30.6671,-87.9365,3.007,0.07,1111122 
DISL,ioos:station:DISL:MHPA:1,2013-04-06T11:30:00Z,30.6671,-87.9365,2.975,0.07,1111122 
DISL,ioos:station:DISL:MHPA:1,2013-04-06T12:00:00Z,30.6671,-87.9365,2.961,0.07,1111122 
DISL,ioos:station:DISL:MHPA:1,2013-04-06T12:30:00Z,30.6671,-87.9365,2.956,0.07,1111122 
DISL,ioos:station:DISL:MHPA:1,2013-04-06T13:00:00Z,30.6671,-87.9365,2.95,0.07,1111122 
DISL,ioos:station:DISL:MHPA:1,2013-04-06T13:30:00Z,30.6671,-87.9365,2.947,0.07,1111122 
DISL,ioos:station:DISL:MHPA:1,2013-04-06T14:00:00Z,30.6671,-87.9365,2.976,0.07,1111122 
DISL,ioos:station:DISL:MHPA:1,2013-04-06T14:30:00Z,30.6671,-87.9365,3.034,0.07,1111122 
DISL,ioos:station:DISL:MHPA:1,2013-04-06T15:00:00Z,30.6671,-87.9365,3.116,0.07,1111122 
DISL,ioos:station:DISL:MHPA:1,2013-04-06T15:30:00Z,30.6671,-87.9365,3.239,0.07,1111122 